Retour au catalogue

NOAA 16 DEB

ActifPO
NORAD 42419·DEBRIS·🇺🇸 United States

Lancé Sep 21, 2000 depuis Vandenberg Space Force Base

Loading…

Prochains Passages (prochaines 24 heures)

TLE

FraisSource: Space-Track

Époque: Sep 13, 2026, 15:27 UTC

1 42419U 00055TP  26256.64378630  .00016028  00000-0  27984-2 0  9997
2 42419  98.8213  35.8939 0011587  51.9874 308.2373 14.67985432545847

Suivez NOAA 16 DEB en temps réel avec AllMySat

Download on the App Store